Theta_e
336 336 337 346 347 348 348 348 348 348 348 348 348 347 346 346 345 344 343 343 343 342 343 342 341 340 340 340 340 339 340 340 342 346 345 343 342 341 339 337 337 337 340 340 340 342 342 345 345 344 343 343 341 341 341 340 339 340 340 341 341 341 342 341 340 339 339 340 342 342 343 344 344 345 345 346 345 345 343 342 342 339 339 341 345
336 336 336 340 347 347 347 348 348 349 348 348 348 347 347 346 346 345 344 343 343 342 341 341 340 340 339 339 339 339 340 341 344 345 345 343 342 339 338 338 337 337 342 341 340 342 343 343 344 344 343 342 341 340 339 339 337 338 339 339 340 340 340 340 340 340 339 340 340 339 339 341 341 342 343 343 343 343 342 342 341 337 337 342 342
337 337 337 341 347 348 347 348 348 348 348 348 348 347 346 346 346 345 344 343 342 342 341 341 340 340 340 340 339 339 339 342 346 346 343 341 340 339 338 337 337 337 339 341 342 342 342 341 342 343 343 341 341 340 340 339 338 337 338 340 340 341 340 340 340 339 339 339 338 339 339 339 338 339 341 342 341 341 340 340 340 339 336 341 340
337 338 340 343 347 347 348 348 347 348 348 348 347 347 346 346 346 345 344 343 343 342 341 340 340 340 340 339 339 339 339 340 344 345 343 340 339 338 337 338 337 339 340 340 341 341 340 341 342 343 342 342 342 342 341 340 340 339 339 339 340 341 341 340 340 339 339 338 336 335 333 331 334 338 339 339 340 340 339 339 340 340 341 341 341
338 341 342 342 344 346 347 347 348 348 348 348 347 347 347 346 345 345 343 342 342 342 341 341 340 340 339 339 339 339 342 343 344 344 344 341 338 337 337 338 337 338 339 340 340 340 340 341 341 342 342 341 341 341 340 340 341 341 341 341 341 341 341 340 340 339 338 338 336 332 327 329 331 338 340 342 342 341 340 340 340 341 341 340 342
339 341 341 340 341 344 347 348 348 348 347 347 347 346 346 346 345 345 344 343 343 342 342 341 340 340 339 339 339 338 344 345 344 344 344 341 339 338 336 336 338 338 339 340 339 339 340 341 340 341 341 340 341 341 340 340 341 341 341 341 341 341 340 340 339 338 337 336 335 332 332 334 335 337 342 342 342 339 340 341 340 340 340 341 341
340 341 339 339 341 343 346 348 348 348 347 347 347 346 346 346 345 345 343 343 343 342 342 341 340 339 339 339 338 338 345 346 344 344 344 342 339 337 340 339 340 340 341 341 340 340 340 341 341 343 343 341 341 340 341 340 340 341 341 341 341 340 339 339 338 337 336 333 330 331 332 333 335 336 341 342 342 340 340 341 341 341 341 340 339
341 340 337 338 341 344 346 348 347 347 347 347 347 347 346 345 345 344 342 342 342 341 341 340 340 340 339 339 339 342 343 345 346 345 344 342 338 335 335 336 336 338 339 340 339 339 341 340 341 341 340 339 340 339 339 340 339 340 340 340 339 339 338 337 337 336 336 331 330 330 331 332 334 335 341 341 342 340 338 341 341 341 340 339 336
339 339 338 338 340 343 346 347 348 348 347 347 347 346 346 345 345 344 343 342 341 341 340 340 340 339 339 338 340 343 343 344 345 344 343 343 340 337 335 337 338 339 338 338 338 339 339 340 340 339 339 339 338 339 339 339 339 339 340 339 339 338 337 336 335 334 332 330 330 330 330 331 333 334 340 341 341 340 338 337 338 339 339 335 335
339 338 338 337 339 342 344 347 348 348 347 347 346 346 346 345 344 344 343 342 341 341 340 340 339 339 339 338 339 342 342 343 344 343 342 343 341 338 336 335 337 337 338 338 338 338 340 339 340 339 338 338 338 338 337 338 338 338 338 337 337 337 336 335 334 333 329 330 330 331 332 334 332 332 337 340 340 338 336 334 334 333 333 335 334
338 338 338 337 338 342 346 348 348 348 347 346 346 346 346 345 344 344 343 342 341 340 340 339 339 339 338 339 338 340 341 342 342 342 341 341 340 337 336 335 334 335 335 336 337 338 339 340 340 339 339 338 337 337 337 338 338 337 336 336 336 336 335 333 331 328 329 329 329 330 333 335 331 330 339 339 339 337 334 334 333 333 336 336 337
339 338 337 338 343 342 346 347 348 347 347 346 346 346 345 345 344 344 343 342 341 340 340 339 339 339 338 338 336 341 341 340 341 341 340 339 340 339 336 336 336 335 334 334 337 338 339 339 339 338 337 337 337 337 337 337 337 337 336 335 334 333 333 332 328 327 328 328 328 329 330 331 330 336 339 338 338 338 334 335 335 336 336 336 335
339 339 338 338 337 340 344 346 346 347 347 347 346 346 345 345 344 344 343 342 341 341 340 339 339 338 338 338 337 337 339 341 340 340 339 339 338 337 336 335 335 335 335 335 336 337 338 338 338 338 338 337 337 337 337 336 336 335 334 334 333 332 331 329 325 326 327 327 328 328 328 329 330 336 336 337 336 336 336 336 335 335 335 334 334
339 339 338 339 338 344 341 344 345 346 347 347 346 346 345 345 344 344 342 342 341 340 340 339 339 338 338 337 337 336 339 340 339 338 338 338 338 337 336 335 335 335 334 335 336 336 336 336 337 336 337 337 337 336 336 335 335 335 333 333 331 330 328 327 326 323 325 325 327 327 328 330 330 335 335 336 336 335 333 333 332 331 330 331 331
338 340 340 338 339 341 342 340 342 344 345 346 346 345 345 344 344 343 343 342 341 340 340 339 338 338 337 337 336 336 335 335 337 336 336 336 336 335 335 334 334 335 334 333 335 335 335 336 336 335 335 335 335 335 335 334 334 333 332 331 330 328 327 323 323 323 323 325 326 328 327 328 333 333 334 333 332 332 331 330 330 328 327 328 328
339 340 340 339 338 338 340 342 339 341 341 343 343 344 344 344 344 343 343 341 340 340 339 339 338 337 337 337 336 335 335 336 335 334 334 334 335 334 333 332 333 333 333 335 334 335 335 335 334 334 334 334 334 334 333 332 332 331 331 330 329 328 326 324 323 323 323 324 325 327 327 328 332 333 333 334 333 330 329 329 328 328 327 326 326
339 339 340 340 339 338 338 340 337 336 337 338 339 341 342 343 343 343 342 341 340 339 339 338 338 337 337 336 336 336 335 334 333 333 332 332 332 331 330 331 333 333 333 334 334 334 334 334 333 333 333 333 333 332 331 331 331 330 330 329 328 327 325 324 323 323 324 325 325 325 326 327 331 332 333 332 329 328 327 328 327 327 326 326 325
337 338 339 339 339 338 338 337 337 338 339 336 335 337 339 341 342 341 341 341 340 339 337 337 337 337 336 335 335 335 335 333 332 332 331 331 331 330 329 331 332 332 332 334 334 334 333 333 333 332 332 332 332 331 330 329 328 327 327 327 327 325 324 323 322 323 325 326 325 327 328 331 332 332 332 328 327 326 329 327 327 326 326 326 324
336 337 339 338 338 338 337 337 338 338 338 337 336 336 335 337 338 338 338 339 339 337 336 336 334 333 332 331 331 332 331 332 331 331 331 331 330 329 331 330 330 330 332 333 334 333 333 332 332 332 331 330 329 329 327 325 324 323 324 323 323 321 322 322 323 323 324 325 325 326 328 331 332 331 328 327 327 329 328 327 325 325 325 324 323
335 336 336 337 338 337 336 337 337 337 337 338 337 336 333 333 336 336 336 336 335 334 334 331 327 326 325 326 325 326 326 326 326 326 328 329 328 326 329 330 330 330 331 333 333 332 332 331 331 330 329 328 327 326 324 323 322 321 320 319 317 316 316 319 322 323 324 325 326 327 330 330 330 330 328 327 329 328 327 325 323 324 323 323 323
334 335 335 336 337 336 336 336 336 337 338 338 339 338 334 331 332 331 331 332 332 331 329 324 321 320 320 321 321 321 321 321 321 322 322 321 321 323 328 329 328 329 331 332 332 331 330 330 329 327 325 323 320 320 320 320 319 318 317 315 313 311 312 315 319 321 323 325 325 326 329 328 328 329 329 329 329 327 326 325 325 324 323 322 321
332 333 335 336 335 336 335 337 336 337 338 338 339 339 336 333 334 333 331 329 328 325 324 323 323 320 320 320 320 320 320 320 320 322 320 320 320 321 324 326 327 328 329 330 330 329 328 327 325 323 321 318 314 309 310 314 315 314 312 311 308 308 309 311 314 318 322 324 324 325 327 326 326 327 328 327 325 323 322 321 323 323 322 321 320
332 333 334 336 336 336 336 336 336 337 337 338 339 338 337 336 336 335 333 328 326 324 323 321 319 319 319 319 319 319 319 319 319 320 320 319 320 320 323 324 325 326 326 327 327 326 324 323 321 319 316 313 307 306 306 305 306 309 308 305 305 306 307 308 310 314 319 321 322 324 325 325 325 325 326 326 325 324 322 321 320 319 320 320 320
333 334 334 336 336 336 335 336 336 337 337 338 338 337 337 337 336 335 332 329 327 325 322 320 319 319 319 319 319 318 318 318 320 321 319 316 314 315 316 316 316 317 318 320 321 320 319 317 315 312 309 306 304 304 304 304 303 303 303 303 303 304 304 305 307 309 314 320 322 325 324 324 324 325 325 325 323 323 323 323 321 319 318 318 320
333 334 334 335 336 336 336 336 337 337 337 337 337 337 338 337 336 335 332 329 327 326 324 321 319 319 319 319 319 318 318 317 317 317 316 312 308 307 306 305 305 305 308 303 303 304 304 302 303 303 302 304 304 303 303 302 302 302 301 301 302 302 303 304 305 307 311 318 321 323 324 324 324 324 325 325 324 322 322 322 322 320 319 318 317
328 331 333 334 335 336 336 336 337 337 337 338 337 336 337 336 335 334 332 329 328 326 324 322 321 320 320 319 318 318 317 316 316 315 313 310 307 304 303 302 302 302 303 301 301 301 301 301 301 301 300 301 301 301 301 301 300 300 299 300 300 301 301 302 304 306 308 314 319 321 322 322 322 323 324 322 321 323 322 321 321 320 319 318 318
327 331 333 333 335 335 335 336 336 337 337 338 338 336 337 337 336 334 331 329 328 326 324 323 323 323 322 319 318 317 317 316 315 314 312 309 306 304 302 301 300 300 301 301 300 299 299 300 300 300 300 300 300 300 300 299 299 299 298 298 298 299 300 301 302 303 305 309 316 320 322 323 324 324 324 325 323 321 320 321 321 321 318 317 317
326 328 331 333 331 335 335 334 335 336 336 337 337 337 337 337 336 332 332 329 328 326 324 324 324 323 322 320 318 318 317 315 314 313 311 308 306 305 303 301 300 299 299 299 298 298 298 299 299 299 300 299 299 299 299 298 298 298 297 296 297 297 297 298 299 300 301 304 307 315 319 321 322 322 323 323 323 321 319 319 319 319 319 318 317
325 327 327 330 331 333 335 334 334 335 336 337 336 337 337 337 335 334 333 327 329 327 325 324 324 324 322 321 320 318 316 315 314 312 309 307 307 305 303 301 299 298 298 297 298 298 298 298 298 297 298 298 297 297 297 296 296 296 295 295 295 295 296 296 297 297 298 299 302 307 316 320 321 321 321 321 322 321 321 319 319 317 317 317 317
323 326 326 327 330 329 332 333 333 334 335 335 336 336 336 336 335 334 334 329 330 328 326 324 325 325 323 322 321 320 318 316 314 312 309 308 308 305 303 300 298 297 297 297 297 298 297 297 296 296 297 297 296 296 296 295 294 293 293 293 292 292 293 294 294 295 295 296 298 301 309 315 319 318 318 319 319 319 320 319 319 319 318 316 315
319 322 324 325 324 325 329 332 332 331 333 333 334 335 336 336 334 335 334 332 333 329 326 325 325 326 324 322 321 320 319 318 316 314 311 310 308 304 301 299 297 296 296 296 297 297 298 297 297 296 296 295 295 296 295 294 293 292 292 292 291 291 291 291 292 292 293 293 294 296 300 308 314 318 318 317 317 317 317 317 316 317 317 318 316
319 320 322 323 322 324 327 329 330 329 330 332 331 333 334 335 333 335 334 333 333 330 327 326 324 326 326 323 322 321 319 318 316 314 312 311 309 305 301 298 296 295 296 296 296 297 297 297 296 296 295 295 295 295 294 293 291 291 291 291 290 290 289 290 290 290 291 291 292 293 294 298 305 311 314 315 314 314 314 314 314 315 317 316 315
320 320 320 320 322 323 325 326 326 326 328 330 330 332 333 334 333 334 333 333 333 333 330 327 326 326 328 324 322 321 319 318 316 314 312 313 310 305 301 298 297 296 296 296 297 296 296 295 295 295 294 294 293 292 293 291 290 289 289 289 289 288 288 288 288 289 289 289 289 290 291 293 294 301 307 313 313 313 313 313 313 315 315 314 314
319 317 318 319 322 323 324 325 323 323 324 327 327 329 331 333 332 333 332 332 333 333 331 330 327 326 328 325 323 321 319 318 316 314 313 314 310 305 302 299 298 297 296 297 296 296 295 295 295 294 294 293 292 291 291 289 289 289 288 288 287 286 286 287 286 286 287 287 287 288 288 289 291 292 296 304 311 312 312 312 311 311 312 312 312
315 316 318 319 319 321 322 324 320 321 320 322 323 325 328 330 330 331 331 331 331 333 332 332 330 328 328 327 324 321 320 318 316 314 313 315 311 306 302 299 298 297 297 297 296 296 295 294 294 293 292 292 291 291 289 288 288 288 287 287 286 286 286 285 285 285 285 285 286 286 286 287 288 289 290 292 299 309 310 310 311 310 310 310 311
317 317 317 317 319 319 319 322 318 320 318 319 319 321 324 327 328 325 328 327 328 329 330 330 330 331 329 328 326 322 320 319 317 316 314 315 311 306 302 299 298 297 297 297 296 295 294 295 295 294 291 290 290 288 288 288 288 287 287 287 286 286 284 284 284 284 284 284 284 284 284 285 286 288 289 287 290 298 307 308 309 309 309 309 309
317 316 316 316 317 317 317 319 318 319 317 314 312 312 316 321 324 324 324 324 326 326 327 327 328 329 330 329 327 323 321 320 318 317 315 314 310 306 302 299 298 298 297 296 295 296 295 294 293 294 292 291 289 288 288 287 287 286 286 285 285 285 283 283 283 283 284 282 282 282 283 283 286 287 283 284 285 287 297 303 306 307 307 308 308
316 317 317 317 317 317 316 318 317 316 315 313 310 310 311 315 317 319 318 321 323 324 324 324 326 327 328 329 328 325 321 321 319 318 317 315 311 306 301 299 298 298 297 296 295 295 295 293 292 292 292 291 289 287 286 287 287 286 285 284 284 284 283 283 285 285 282 281 281 281 281 281 282 281 281 281 282 283 284 291 297 300 304 306 307
315 316 315 316 315 315 314 313 313 312 310 308 306 306 306 306 307 312 314 315 315 314 316 320 323 325 326 327 327 327 322 322 320 319 317 314 311 306 301 299 298 297 296 296 295 294 294 293 292 290 290 290 289 288 287 287 286 286 284 284 284 283 283 284 283 282 282 282 284 284 282 281 280 280 280 280 280 281 282 282 282 284 289 303 303
313 314 314 313 314 312 311 311 311 310 307 306 306 306 305 307 310 309 312 311 311 312 312 316 318 320 322 324 325 324 323 322 320 319 318 314 310 303 300 299 299 297 296 295 294 293 292 292 291 290 289 289 289 288 287 286 285 284 285 284 284 283 283 282 282 281 282 281 281 281 281 281 280 280 279 280 279 279 280 280 283 280 282 288 298
310 311 312 312 312 313 310 310 308 308 309 307 307 307 306 305 305 310 313 312 311 310 311 311 311 314 315 318 320 321 323 323 320 319 317 312 309 303 300 299 299 297 296 295 295 294 293 292 291 291 289 288 287 287 287 286 284 283 283 282 283 284 285 282 281 281 281 280 280 280 280 280 279 279 278 279 279 279 279 279 279 279 280 279 283
309 310 311 312 311 310 310 310 307 307 309 309 308 307 302 304 305 307 305 308 308 309 311 310 309 308 309 313 315 318 320 321 319 320 316 313 307 302 300 300 299 297 297 296 294 294 293 292 291 289 289 288 286 287 286 285 284 282 281 281 283 283 284 281 281 281 280 280 280 280 280 279 279 278 279 278 278 278 278 278 278 278 278 279 280
310 309 310 309 308 308 309 308 307 308 307 306 307 306 298 298 301 299 306 303 302 305 307 304 306 307 307 309 313 314 317 318 318 317 315 312 308 304 302 300 299 298 296 294 294 293 292 291 290 289 287 288 287 288 287 287 283 284 284 282 280 280 283 281 281 281 281 280 280 280 280 278 279 279 279 278 278 278 278 277 277 277 277 278 278
307 306 307 308 308 307 307 307 306 306 306 305 305 301 302 297 297 299 299 303 304 302 303 303 304 305 307 306 308 312 314 315 317 316 315 312 309 305 304 302 300 298 297 294 293 292 292 291 290 289 288 285 285 286 287 287 286 283 280 281 279 280 278 278 278 280 280 280 280 280 280 279 279 279 278 278 278 278 277 277 277 277 277 277 277
306 307 307 308 309 308 307 306 306 305 305 303 304 301 301 298 297 296 296 299 301 303 304 305 304 305 306 306 307 308 311 312 313 315 314 312 309 307 304 302 301 299 298 295 293 293 292 291 290 290 288 288 285 285 286 286 286 286 284 279 278 279 278 277 279 279 279 280 280 279 281 279 278 279 278 278 277 277 277 277 277 277 277 277 277
306 307 308 308 307 306 305 304 304 304 304 303 303 303 304 302 299 300 298 297 301 301 304 307 306 305 306 306 306 307 309 311 312 313 313 312 309 307 305 303 301 300 298 296 295 294 292 291 291 290 289 289 287 285 285 287 287 287 285 287 282 281 278 278 279 275 280 279 279 279 280 279 278 280 278 278 278 278 280 277 277 278 277 276 277
306 304 304 305 305 305 304 304 304 303 303 303 302 303 302 302 303 303 303 303 303 302 302 303 305 303 303 304 304 303 306 310 310 312 312 311 310 308 306 303 302 300 298 297 295 294 293 291 291 290 290 290 288 285 285 285 286 286 286 285 286 284 281 280 277 277 276 278 278 279 279 279 278 278 279 278 278 277 278 278 277 277 277 277 276
301 301 303 304 304 304 304 303 303 303 302 302 302 303 304 301 301 301 302 302 302 302 299 299 299 302 301 302 303 303 304 308 310 310 311 311 309 308 306 304 302 301 298 298 296 295 294 293 292 291 290 290 288 287 286 286 284 285 286 283 283 282 283 280 281 281 279 277 277 278 277 279 278 279 279 279 278 278 278 278 277 276 276 276 276
301 303 304 304 303 303 302 301 301 301 301 301 302 302 303 302 302 302 301 301 301 300 297 297 297 298 300 301 302 303 303 305 308 309 310 310 308 308 306 304 302 301 298 298 297 296 294 293 292 291 290 290 289 290 289 287 286 286 284 283 281 281 280 277 279 277 277 277 276 277 277 278 278 278 279 279 279 278 279 278 277 278 278 278 277
300 299 300 301 301 301 301 301 301 300 300 300 301 301 301 301 301 301 301 300 300 299 296 297 297 297 298 300 301 302 302 303 305 308 309 309 308 307 306 304 303 301 298 299 298 297 296 294 292 291 291 290 290 289 289 288 288 286 285 284 282 281 280 279 279 277 278 278 277 278 278 277 277 279 279 279 278 278 278 278 278 279 278 277 277
296 298 299 300 300 301 301 301 301 300 299 300 300 300 300 300 301 301 301 300 299 299 297 297 298 298 299 300 300 301 302 302 303 305 307 308 308 306 306 305 304 301 299 299 298 297 296 294 293 292 291 290 290 290 288 288 288 286 286 285 284 283 282 280 279 280 278 276 276 278 278 279 279 278 279 279 279 278 278 277 278 278 277 277 277
Wind_Speed
4 4 3 4 9 11 11 10 12 12 13 13 13 13 12 12 12 12 12 13 14 14 14 14 14 14 15 15 15 14 14 15 16 17 18 19 19 17 17 17 17 17 18 19 19 19 18 19 19 20 21 21 21 21 20 21 20 19 20 20 20 20 21 21 22 22 20 21 23 23 21 20 21 21 22 23 23 22 20 20 16 13 11 18 24
7 4 3 2 10 11 11 10 13 13 12 13 13 12 12 12 12 12 12 12 13 13 14 14 14 14 15 15 14 15 14 14 15 16 18 19 17 17 17 17 17 18 20 20 20 19 18 17 19 19 20 21 21 21 21 21 21 20 20 20 20 19 18 17 17 17 19 19 21 23 22 23 22 21 21 23 24 23 19 20 20 13 11 22 23
5 3 2 1 10 9 11 11 12 13 12 13 13 12 12 12 12 12 12 13 13 13 13 13 14 14 15 15 15 14 13 16 18 18 19 18 17 17 17 18 18 18 19 19 19 19 18 17 18 19 20 20 20 21 21 20 20 20 19 20 19 18 18 18 17 16 15 14 18 19 18 22 22 22 23 23 24 22 20 21 21 19 15 23 21
6 3 2 4 8 9 11 12 12 13 12 13 13 12 11 12 12 12 12 12 13 13 13 13 13 13 14 14 14 14 14 16 18 17 19 18 17 17 17 18 18 18 19 18 18 19 18 19 20 20 20 19 19 20 20 19 19 20 20 20 20 19 18 18 17 16 15 14 12 9 7 9 14 22 22 22 22 23 20 23 23 25 25 24 25
6 4 2 3 5 7 11 12 13 13 12 12 12 12 12 11 11 11 12 12 13 12 13 13 13 13 14 14 14 14 15 15 14 16 18 18 17 16 18 17 18 18 18 18 18 18 19 19 19 20 20 19 19 19 19 20 20 20 20 20 19 18 19 18 18 17 16 14 12 8 6 5 7 21 23 24 24 22 23 24 24 24 25 27 26
6 4 2 3 4 6 10 11 13 13 13 12 12 12 12 12 11 11 11 12 12 12 12 13 13 13 13 13 14 14 15 16 16 17 18 18 18 17 17 17 17 17 18 18 18 19 19 19 19 19 20 20 19 19 20 19 20 20 20 19 19 19 18 18 17 16 15 13 11 8 9 11 10 12 24 25 24 22 25 25 25 24 25 27 25
8 3 3 3 3 6 10 12 13 13 14 13 12 12 12 12 11 11 11 12 12 12 12 12 13 13 13 13 12 13 15 15 15 15 18 19 18 16 17 17 17 18 18 18 19 18 18 18 19 20 20 20 21 20 20 20 20 20 19 20 20 19 19 18 17 17 15 9 7 8 8 9 9 10 24 24 24 25 26 25 25 26 26 25 25
4 3 3 3 3 6 9 11 13 13 14 13 13 12 12 12 11 11 11 11 11 11 12 12 12 12 12 12 12 13 13 15 16 18 18 19 18 16 14 15 16 17 17 18 17 17 18 19 19 19 20 20 19 20 19 19 20 20 20 20 20 19 19 18 17 17 17 9 8 7 7 8 9 10 23 24 24 25 23 26 26 26 26 25 21
5 3 3 3 3 8 9 10 13 13 14 13 13 12 12 12 11 10 11 11 11 11 11 11 12 12 11 11 13 13 12 14 16 17 18 18 18 17 15 17 16 17 18 18 17 17 18 19 19 20 20 20 19 19 19 19 19 20 19 20 19 19 18 17 17 16 10 8 8 8 8 8 9 12 22 26 27 26 24 21 22 26 26 24 23
5 4 3 3 4 8 8 10 13 13 13 13 13 12 12 12 11 11 11 11 11 11 11 11 11 11 11 11 13 13 12 13 15 15 15 17 18 18 16 15 17 16 17 17 17 17 18 18 19 19 21 20 19 19 19 19 19 19 19 20 21 19 17 16 16 14 8 8 9 10 10 12 10 12 22 26 26 27 26 24 18 18 18 25 27
5 4 3 3 3 8 9 10 11 12 13 13 13 12 12 12 12 11 11 11 10 10 10 10 11 11 11 10 10 13 13 14 15 15 16 15 16 18 16 14 14 16 16 16 16 17 18 18 19 20 20 19 19 19 19 19 20 19 20 20 20 19 16 14 12 7 8 8 9 9 12 16 10 9 22 27 26 27 25 25 24 22 27 28 28
6 4 3 3 5 8 9 9 10 12 11 12 12 12 12 11 11 11 11 11 11 10 10 10 10 10 11 10 10 14 14 15 14 15 15 15 17 17 16 15 14 15 15 15 16 17 18 19 20 20 19 19 19 20 20 19 19 18 18 17 16 15 16 16 9 7 7 8 8 8 8 10 9 15 27 25 25 25 26 26 27 28 28 29 29
6 5 4 4 4 6 8 9 10 11 11 12 13 13 12 12 12 12 11 11 11 11 10 10 10 10 11 10 10 12 13 14 15 15 15 16 17 16 16 15 15 16 16 15 16 16 18 19 20 20 20 20 20 20 19 18 18 17 17 16 15 15 14 12 7 7 6 6 6 7 7 7 11 23 24 26 25 26 27 28 28 29 29 29 29
7 5 4 4 4 6 9 9 10 10 10 12 13 12 12 12 12 12 11 11 11 11 10 10 10 10 10 11 10 10 13 13 13 13 14 15 16 16 15 15 16 16 16 16 15 16 16 17 18 19 19 20 19 19 20 19 18 17 17 16 15 14 11 8 7 7 7 6 6 6 7 9 13 25 26 26 26 27 28 28 27 27 27 28 29
8 7 5 4 4 4 8 9 9 10 10 10 11 11 12 13 12 12 12 11 11 11 11 10 10 10 10 11 10 10 9 12 13 12 13 13 14 15 15 16 17 17 16 16 16 16 16 18 19 19 20 20 20 20 20 20 19 18 17 16 16 13 11 7 7 6 7 7 7 10 9 10 22 25 26 26 26 27 27 27 28 27 27 26 27
8 8 6 4 4 4 4 7 9 9 9 10 10 10 11 11 11 12 12 11 11 11 11 10 10 10 10 10 11 10 11 14 13 13 12 13 14 14 15 16 17 16 17 17 16 17 17 18 18 18 19 20 19 20 20 20 19 18 17 16 15 13 12 9 7 7 6 7 7 7 8 12 25 27 27 28 28 28 26 27 28 27 28 28 28
7 6 6 5 4 4 4 4 5 9 9 9 9 10 10 10 11 12 12 11 11 11 11 10 10 10 10 9 9 9 10 12 13 13 12 12 13 14 15 16 17 15 17 17 17 17 17 17 18 18 18 19 20 21 21 20 20 18 17 17 16 14 13 10 8 7 7 7 5 5 6 10 22 26 28 28 26 24 26 27 26 26 27 27 28
6 7 6 6 5 4 4 4 4 5 5 7 8 9 9 10 10 10 10 10 10 10 10 9 9 9 8 7 7 8 11 13 14 13 13 12 13 13 15 16 16 16 16 18 17 17 17 18 18 18 18 18 20 21 20 19 18 18 17 17 17 13 12 11 7 6 8 8 8 6 9 17 25 25 28 27 24 25 27 27 27 27 27 28 28
6 6 5 6 5 5 4 3 4 4 6 5 4 6 9 10 10 10 10 10 9 9 8 8 9 8 9 9 9 10 11 12 12 12 11 10 10 11 13 14 15 16 17 18 18 18 18 17 18 18 18 19 20 20 19 18 17 16 16 16 15 12 12 8 7 7 7 6 5 6 10 24 26 27 27 25 25 26 26 26 26 26 27 27 26
5 5 5 5 5 5 4 4 4 5 5 5 4 4 7 9 10 10 10 10 10 9 9 9 9 10 10 10 10 9 9 9 12 10 11 10 9 7 12 14 15 16 16 18 18 18 18 18 18 18 19 19 18 19 18 17 16 15 14 13 10 11 7 5 5 6 7 8 9 8 16 24 27 26 25 25 26 26 26 26 24 25 25 25 25
4 6 6 5 6 6 6 4 4 5 5 5 5 5 6 8 8 9 10 10 10 10 10 10 9 9 9 9 9 7 5 6 7 7 9 5 7 9 13 14 15 15 16 18 18 18 18 18 18 18 18 18 17 18 17 16 16 15 14 13 10 7 6 6 6 5 6 7 9 11 20 22 25 25 25 27 27 26 26 26 25 25 25 24 24
6 6 6 5 6 5 6 5 5 5 6 5 5 4 5 7 5 5 5 7 8 9 7 6 6 5 8 7 5 5 5 5 6 6 5 5 6 10 13 13 14 14 13 16 17 17 17 18 18 17 17 15 14 9 9 12 15 14 13 11 8 6 6 6 6 6 7 7 8 13 22 23 21 22 25 24 24 23 23 24 24 25 24 24 23
7 7 6 7 6 6 6 6 6 6 5 6 5 5 6 5 6 6 5 6 6 6 5 5 4 4 4 5 5 5 5 4 5 5 5 7 7 9 12 14 14 14 14 16 17 17 17 16 17 16 16 14 9 7 7 6 7 10 9 8 6 6 6 6 6 5 7 7 8 17 20 22 22 22 24 24 24 24 24 24 23 23 22 23 23
9 8 7 6 7 7 8 7 7 6 6 6 6 5 5 5 5 6 5 5 5 5 4 4 4 4 4 5 5 5 5 5 7 10 8 6 8 12 14 14 13 12 14 12 15 15 17 17 16 14 9 6 7 7 6 6 6 6 6 6 6 7 7 6 5 5 6 7 9 18 19 19 21 23 23 22 23 23 24 24 24 21 22 22 23
6 6 6 7 8 8 8 7 7 7 7 7 6 6 6 5 5 5 6 5 5 5 5 5 4 5 5 4 5 5 5 5 5 5 6 6 6 5 6 5 6 7 7 8 7 7 8 7 7 7 6 6 7 7 6 7 6 6 6 6 6 7 7 6 6 5 5 7 10 16 18 21 23 22 23 24 23 23 23 23 23 23 22 22 22
4 6 8 7 9 8 8 7 7 8 7 6 7 7 7 6 6 5 6 5 6 6 5 5 5 4 5 5 5 6 6 5 5 5 5 6 6 5 5 5 5 5 5 7 6 6 6 6 6 7 6 6 7 6 6 6 6 6 6 6 6 6 6 6 6 6 5 6 10 16 16 18 19 21 21 20 20 21 21 22 22 22 22 22 21
6 9 7 6 7 7 8 8 7 7 9 7 6 6 7 7 6 6 7 6 5 6 6 5 5 5 5 6 6 6 6 5 5 5 5 5 5 5 5 5 5 5 4 7 6 5 6 6 6 6 5 7 7 7 7 7 6 7 6 6 6 6 6 7 6 6 6 6 8 15 16 19 21 22 22 22 21 19 19 21 21 21 22 21 20
4 7 8 8 6 9 8 9 8 7 7 8 8 7 6 8 7 7 7 7 7 6 6 6 6 6 6 5 5 6 7 6 6 5 5 4 5 5 5 5 5 5 5 5 7 6 6 6 6 6 7 6 7 6 7 7 7 6 7 7 6 6 6 7 6 7 6 6 6 9 10 13 19 18 19 19 20 19 18 18 19 19 19 19 20
8 8 7 8 9 7 9 9 8 9 7 7 8 7 7 7 8 7 7 8 7 6 6 6 6 6 6 7 7 6 6 6 7 6 5 5 4 5 5 5 5 5 5 5 6 7 6 6 6 6 6 6 6 6 6 7 6 6 6 7 6 6 6 6 7 7 6 6 7 11 12 12 15 18 18 18 19 19 19 18 17 18 18 18 18
11 9 8 8 8 6 8 10 10 8 7 7 6 7 7 7 9 9 7 8 7 7 7 6 6 7 7 7 7 7 8 7 7 6 6 5 5 4 5 5 5 5 5 6 4 6 7 6 6 6 7 6 7 5 6 7 8 6 6 7 6 5 5 6 6 6 5 6 7 8 16 14 14 16 15 17 17 16 17 17 18 18 18 18 17
8 11 10 9 7 7 8 8 8 8 7 7 7 7 7 6 7 8 7 8 8 8 7 7 7 7 8 8 7 7 8 8 8 9 6 6 6 5 5 4 5 5 5 6 4 5 6 6 6 7 7 7 6 5 6 6 7 7 6 7 6 5 5 5 6 6 7 6 6 7 10 16 15 10 14 16 16 15 14 14 15 16 17 17 16
11 13 10 7 7 9 9 8 8 8 8 8 7 7 8 6 5 7 9 9 8 8 8 8 8 7 8 9 8 7 7 8 10 9 10 8 7 6 5 6 5 4 5 6 6 4 5 6 6 6 6 8 8 5 4 7 7 6 6 7 5 6 5 5 6 6 6 6 6 7 7 9 15 17 14 13 13 13 13 13 13 14 15 15 15
10 9 8 8 11 9 10 9 7 7 9 10 8 7 6 6 6 5 6 9 9 8 9 9 8 8 8 9 9 8 7 7 9 10 10 9 9 9 7 6 6 6 6 7 7 6 6 6 6 6 6 7 8 6 4 6 8 5 5 5 5 6 5 5 6 6 7 6 7 6 7 7 7 13 16 13 14 14 12 13 14 15 14 13 14
8 6 7 11 9 7 7 7 8 9 9 8 7 7 7 7 6 5 5 6 8 8 7 8 8 8 9 9 9 9 8 7 8 9 7 6 7 8 9 8 7 7 7 7 8 7 7 7 7 6 6 7 8 7 6 7 5 4 6 5 5 5 4 6 6 6 5 6 5 7 6 6 7 7 8 15 12 13 13 13 12 12 13 12 12
6 7 11 10 8 9 8 7 8 8 8 8 8 8 6 7 6 6 5 6 6 8 8 8 8 8 8 10 12 11 10 9 9 10 10 10 9 7 7 7 8 8 8 6 7 6 7 8 7 8 7 6 6 6 7 7 5 6 5 4 5 5 5 5 5 6 6 5 6 6 6 6 6 6 7 6 9 12 13 13 13 12 11 11 11
11 9 8 7 9 8 8 9 7 9 8 8 7 7 7 7 6 6 5 5 6 5 5 6 6 8 8 7 9 9 9 10 10 8 9 9 9 9 8 7 9 8 8 8 8 8 8 7 6 8 9 7 7 7 6 7 4 6 5 5 5 5 5 5 5 5 5 5 6 6 6 6 6 6 6 6 6 9 15 13 13 12 11 11 10
9 8 10 8 9 9 9 9 10 10 8 6 5 5 5 5 6 6 6 6 6 6 5 4 5 5 7 8 8 8 8 7 9 11 9 9 9 9 9 10 8 8 9 9 8 8 9 8 8 6 7 9 8 10 7 7 6 7 6 7 6 5 5 5 5 4 4 6 5 5 6 6 5 6 6 6 5 5 10 15 13 12 11 11 11
9 9 9 11 12 10 9 10 8 7 7 7 6 5 4 3 4 4 4 6 6 5 5 5 6 6 5 8 10 10 10 11 9 9 9 8 6 6 7 10 10 8 8 8 7 8 8 9 9 6 7 9 8 9 9 7 6 6 6 6 6 5 5 5 4 4 5 5 5 6 5 4 5 5 5 5 5 5 5 9 12 13 11 10 12
8 9 8 8 7 8 7 8 7 6 5 5 4 4 4 3 2 1 2 3 3 2 3 5 6 6 6 6 7 9 11 12 12 10 9 9 8 8 8 8 9 9 9 9 8 8 7 8 10 9 6 5 8 8 9 8 8 7 7 6 6 5 5 4 5 5 5 4 4 3 4 5 4 5 5 5 4 5 6 6 6 6 8 14 12
7 7 8 7 8 7 6 6 6 6 5 5 5 5 4 5 5 2 1 2 2 3 4 5 4 5 6 6 7 6 8 10 13 14 15 14 12 11 12 10 9 10 10 10 10 11 12 11 10 11 11 7 5 7 10 10 9 9 7 7 6 5 5 4 4 3 3 4 4 3 5 4 5 4 4 3 4 5 5 5 5 6 5 8 11
6 7 8 9 10 11 9 10 7 7 8 7 6 6 5 3 1 4 5 4 4 3 4 3 3 3 2 4 6 5 6 8 7 6 7 9 10 10 11 11 9 10 11 12 11 10 9 8 10 8 11 10 7 6 6 10 13 8 6 6 6 4 3 3 3 3 3 4 3 4 3 5 4 4 3 3 4 4 4 5 5 5 5 4 6
9 9 12 12 10 8 10 9 7 7 8 9 8 7 4 5 5 5 4 4 4 4 5 3 3 2 2 2 3 4 5 6 8 9 7 6 7 9 11 13 12 11 9 9 9 8 10 11 10 9 7 11 9 9 8 8 4 8 10 5 4 4 2 3 2 2 2 2 3 3 3 3 3 2 2 3 3 4 4 4 4 4 4 4 5
9 10 8 6 7 8 8 8 8 8 7 7 7 6 3 3 4 4 6 3 1 1 1 1 2 3 3 3 3 3 5 5 7 9 10 10 8 9 10 10 11 11 11 11 12 13 11 13 14 13 10 5 7 9 12 5 6 5 5 8 3 3 1 1 0 0 1 1 2 3 2 3 2 1 1 3 3 3 3 3 3 3 3 4 4
6 6 7 10 9 8 8 8 8 7 7 6 7 4 4 3 3 4 2 3 3 2 2 0 2 2 5 3 3 4 4 4 6 8 8 10 11 12 10 9 11 10 10 12 13 13 13 11 11 11 12 12 9 10 11 6 9 15 7 2 4 4 2 7 3 1 1 1 3 3 2 2 1 1 1 3 3 3 3 3 3 2 2 3 3
8 10 10 10 9 11 9 9 8 8 6 7 7 6 6 4 5 4 3 2 2 2 3 5 5 4 4 4 5 3 3 4 4 7 10 10 10 10 11 12 12 12 11 11 12 14 15 15 15 13 15 15 12 8 11 7 9 4 7 9 3 1 7 4 6 1 2 1 2 3 3 3 3 1 2 2 2 2 3 3 1 1 1 2 2
9 10 9 8 7 7 7 7 6 6 7 8 8 8 8 8 7 6 4 3 5 5 9 10 8 7 7 3 3 5 4 4 4 5 7 10 11 11 11 10 9 10 10 11 12 10 10 12 15 15 14 10 14 13 12 8 10 10 5 1 4 6 8 6 8 5 0 3 3 3 3 4 3 2 1 3 3 2 1 3 1 1 1 1 1
9 5 5 6 6 6 7 8 8 7 7 7 8 8 7 7 9 9 8 9 9 7 4 3 5 4 3 5 5 4 5 6 5 6 7 7 9 11 11 11 12 12 11 9 11 14 14 15 13 12 14 11 10 13 16 12 4 10 8 2 1 2 9 13 7 6 2 3 3 4 4 3 3 3 4 3 3 3 2 2 3 3 2 1 2
5 5 6 5 8 9 8 8 7 7 7 7 8 8 9 7 7 6 7 8 9 7 5 5 3 3 4 6 5 5 4 5 6 6 6 8 9 8 9 9 9 9 10 10 11 11 10 9 12 12 9 10 13 14 14 11 15 13 10 6 3 1 11 0 7 13 8 10 6 1 2 4 3 5 5 5 5 5 4 4 3 3 3 3 2
6 8 8 7 5 5 6 5 7 7 7 8 9 8 7 8 8 8 8 7 6 5 4 4 4 4 6 5 6 5 5 5 6 6 6 7 8 10 11 11 11 10 10 9 10 10 12 14 14 12 12 11 11 8 10 13 11 10 9 4 3 3 4 2 4 3 5 5 1 8 6 1 2 5 6 5 5 5 5 6 4 4 4 3 3
4 4 4 4 5 5 7 7 7 7 6 7 8 7 6 7 8 8 9 7 5 4 4 5 5 4 6 6 6 6 5 5 5 6 6 7 8 8 10 12 12 12 11 11 11 12 12 13 15 15 14 14 10 10 13 11 12 7 7 6 5 4 2 1 3 2 2 2 8 13 10 11 11 8 6 7 6 6 5 5 5 4 5 5 4
4 4 4 5 5 6 7 8 8 6 6 8 7 8 7 7 8 8 9 8 7 6 6 5 5 5 6 6 6 6 5 5 5 6 6 6 8 9 10 10 10 10 11 11 11 12 13 13 13 12 11 13 12 13 11 10 9 7 7 8 10 12 12 10 11 9 5 4 3 5 6 10 9 6 9 6 6 6 6 5 6 6 6 5 5
Wind_Direction
209 185 215 219 134 134 135 127 119 112 107 103 97 93 89 86 81 76 77 79 80 80 80 84 87 87 87 86 86 84 82 84 83 81 81 81 79 80 81 80 81 86 94 87 82 80 79 80 83 84 82 79 77 78 76 78 79 80 80 78 78 76 73 72 71 66 61 66 69 67 67 67 69 70 70 70 69 68 65 63 62 62 61 63 64
166 204 200 155 148 144 137 142 122 115 110 103 98 96 92 88 85 83 83 81 79 80 83 86 86 86 86 83 82 88 94 93 89 93 93 86 82 83 85 88 87 89 84 81 79 77 79 79 81 84 88 86 84 82 80 79 80 82 82 78 73 69 65 60 56 60 68 71 73 73 71 70 72 73 73 71 71 69 67 66 65 64 63 65 64
133 167 187 161 156 150 141 137 123 118 111 105 102 99 96 91 88 87 86 83 83 84 86 87 88 91 92 94 96 92 85 85 85 90 90 90 90 89 87 85 90 93 87 83 79 78 76 78 81 86 87 89 87 81 79 78 78 78 76 72 69 60 58 57 53 51 47 50 68 72 71 74 73 72 73 72 71 67 67 68 66 67 68 68 66
142 165 156 170 156 149 143 138 125 120 113 108 106 103 98 94 91 88 86 85 86 85 85 88 89 87 87 87 92 99 101 89 91 96 92 93 94 92 89 91 95 91 86 85 81 81 85 84 84 83 84 87 85 83 80 79 78 78 78 74 66 60 57 54 51 48 45 44 37 38 66 76 75 77 77 76 73 69 64 64 65 68 68 66 67
143 151 167 160 152 157 143 137 127 121 117 114 112 107 103 99 95 92 89 86 86 88 89 91 91 88 89 93 95 98 91 90 99 94 93 95 94 93 93 95 95 90 88 86 87 87 83 83 87 87 85 85 86 84 80 76 73 71 71 69 64 59 57 55 52 49 48 46 44 42 29 30 65 75 77 76 74 71 69 67 67 68 68 68 69
149 151 162 143 150 150 142 139 131 128 125 121 117 115 109 103 100 98 95 92 91 90 91 90 90 89 91 94 96 92 99 104 104 102 101 97 93 91 92 96 95 93 91 88 87 86 86 85 86 89 88 84 84 87 84 81 80 77 73 68 63 61 58 57 55 52 49 47 48 51 53 61 64 75 80 81 77 75 76 74 73 69 67 67 66
146 148 147 138 137 147 147 143 136 133 129 126 123 118 114 109 103 99 97 95 93 92 92 90 89 91 93 93 88 89 74 79 95 108 106 101 94 96 101 98 98 96 93 90 88 86 85 88 89 89 87 88 88 85 84 82 81 78 73 68 65 63 61 58 57 56 51 49 51 48 57 65 70 76 79 76 76 75 73 75 72 70 66 66 64
133 139 142 145 142 153 149 145 139 136 134 130 128 123 118 112 106 100 97 95 92 91 90 92 93 93 93 94 93 87 85 85 86 86 91 98 100 98 95 96 94 89 88 86 89 86 86 87 88 88 87 87 86 86 86 84 83 82 74 68 66 64 63 61 61 62 63 58 50 53 59 65 73 77 78 78 73 70 70 70 69 68 67 65 63
142 150 149 150 157 153 155 147 145 142 137 134 130 127 120 114 109 106 101 97 94 92 91 93 94 95 98 96 94 89 90 97 96 96 100 100 103 102 100 100 101 98 95 93 90 88 90 89 88 87 87 86 87 86 85 84 82 81 77 71 69 68 66 65 65 65 63 58 61 63 62 62 70 76 76 75 73 70 65 62 62 65 66 65 63
144 144 154 153 159 159 158 155 150 144 140 137 133 129 125 120 116 113 107 103 100 97 96 95 97 101 103 95 90 88 89 93 94 92 93 98 102 100 99 99 100 99 98 94 90 89 91 92 90 88 87 87 85 86 83 82 80 80 81 79 79 74 67 66 67 67 60 58 59 63 68 73 73 80 81 79 76 74 70 68 69 68 68 65 62
145 151 152 156 165 160 163 159 149 147 144 140 138 133 130 125 121 117 113 107 105 104 101 100 101 105 103 92 93 94 93 89 91 94 96 100 97 97 98 97 100 103 100 96 93 93 91 92 93 90 90 88 89 89 87 86 85 82 81 83 81 78 73 70 67 60 57 59 61 65 69 73 69 73 81 79 77 74 72 70 69 68 65 62 60
147 154 155 161 167 163 164 155 153 149 148 144 140 136 131 129 124 121 118 116 111 107 105 104 105 106 106 101 103 102 98 99 98 98 98 95 94 95 96 99 107 105 103 102 96 92 90 89 89 91 90 88 84 84 85 82 77 77 75 71 68 67 70 70 63 62 60 60 67 72 73 77 75 80 77 78 76 74 69 66 63 61 62 59 58
152 155 159 160 164 172 163 158 154 153 153 149 145 139 136 135 130 127 125 122 119 114 112 111 112 113 111 106 102 108 106 107 106 106 104 99 94 93 94 105 110 107 106 103 101 97 94 93 91 89 87 83 79 78 76 73 72 70 69 68 65 65 69 55 53 54 57 60 65 65 72 78 84 80 78 76 74 70 66 63 61 60 59 60 59
154 158 163 161 164 173 161 159 156 156 157 156 150 144 144 140 138 132 129 126 123 121 118 118 117 117 114 110 107 108 116 110 109 107 106 100 97 95 101 110 113 109 107 106 102 99 97 93 90 89 87 81 78 77 74 72 71 69 66 63 60 59 54 52 47 54 53 51 54 55 70 76 81 79 76 73 71 70 68 64 63 62 61 60 60
157 161 159 158 163 162 160 161 156 157 161 158 152 148 148 146 141 136 132 130 128 125 123 120 121 121 121 116 114 116 114 108 99 107 108 107 103 106 110 115 113 108 109 106 101 100 96 93 90 88 86 83 80 77 76 73 70 67 65 63 60 55 53 58 52 48 53 48 56 74 79 84 84 82 79 76 73 72 71 71 70 68 67 66 64
159 157 154 157 155 154 158 166 159 157 160 159 151 152 151 147 143 139 136 134 131 128 126 124 123 123 123 119 117 116 117 105 98 100 110 107 108 107 115 117 113 109 108 102 102 98 95 96 95 92 89 86 84 79 74 72 69 65 65 63 58 55 57 60 55 55 57 61 71 76 83 88 84 82 81 76 74 73 73 72 70 68 67 66 66
152 153 157 154 152 152 158 163 164 159 159 159 154 155 153 149 144 142 140 137 134 130 127 126 123 123 124 119 113 109 105 111 109 108 109 114 117 116 120 119 113 109 107 106 103 100 99 97 96 92 89 89 87 82 79 77 71 65 65 66 64 55 59 61 59 56 61 58 53 56 81 85 84 81 80 78 76 77 76 72 70 70 69 67 66
152 160 164 156 154 153 151 155 157 157 154 156 157 156 154 147 145 143 140 136 134 130 126 125 123 115 97 84 88 95 104 110 109 108 108 107 113 120 121 118 111 112 112 108 106 103 102 101 98 97 93 88 87 85 79 73 68 64 63 65 72 56 59 61 63 57 63 65 65 66 80 85 85 87 83 80 80 75 73 72 71 69 68 67 66
153 166 161 158 161 152 145 142 149 149 149 152 156 158 154 147 144 144 139 136 130 123 122 112 103 96 86 77 78 84 91 93 96 95 95 98 108 115 117 113 114 118 116 112 109 107 105 102 100 95 92 91 88 82 77 70 66 61 64 69 65 53 55 60 62 61 63 66 64 61 84 89 87 84 83 81 79 77 75 73 72 72 70 71 70
163 164 166 171 159 159 149 155 151 135 132 156 155 153 154 149 147 144 141 135 130 125 116 109 102 94 92 89 85 84 86 90 94 95 94 97 104 114 113 110 118 121 118 114 111 110 108 106 104 101 98 93 85 79 77 74 70 65 59 56 44 47 45 51 62 68 77 76 77 80 84 86 86 83 84 82 80 79 77 77 74 72 72 72 71
160 173 175 172 166 162 163 147 138 160 148 154 155 153 156 150 146 144 140 133 129 123 114 106 101 101 98 95 90 85 85 86 86 96 97 100 112 114 108 109 117 120 118 115 115 113 111 108 106 105 96 86 80 76 73 71 67 63 59 52 45 48 39 44 53 66 79 84 84 84 86 85 86 86 81 80 81 81 79 77 77 78 75 72 72
171 167 184 175 170 166 168 164 153 162 165 158 156 154 154 149 145 139 132 128 122 119 117 117 110 108 103 96 94 95 92 91 93 93 99 101 100 103 105 109 116 113 116 114 109 110 108 111 107 94 88 81 73 72 67 64 64 64 60 53 55 47 38 39 47 61 73 79 85 86 85 86 84 84 86 84 82 80 79 75 73 71 73 74 72
182 184 185 183 177 176 176 170 168 164 155 150 158 152 157 151 150 142 132 126 126 122 121 119 120 117 111 106 99 99 101 97 100 106 108 99 80 83 95 104 108 107 110 106 105 113 110 100 89 85 78 72 63 62 61 61 57 50 50 53 58 52 47 41 44 51 74 81 85 87 87 87 86 88 87 86 85 84 83 82 78 77 76 74 73
184 186 181 180 180 180 179 175 175 169 167 152 163 163 163 156 156 150 142 137 134 130 127 125 127 124 119 115 112 105 101 101 104 103 93 72 80 83 83 84 75 76 90 101 106 101 92 84 81 77 68 64 71 61 61 50 51 49 50 50 56 51 51 38 34 39 57 82 90 93 91 90 90 86 87 86 86 86 83 84 84 81 78 76 75
183 164 175 186 188 180 173 178 177 175 176 170 161 168 162 157 161 151 149 148 143 141 139 134 132 128 123 120 118 112 106 105 106 103 92 93 82 81 78 74 86 89 82 90 87 82 81 84 79 73 74 78 81 73 72 65 49 49 47 40 48 51 52 44 35 36 44 80 89 91 94 95 93 91 90 87 87 87 85 82 81 78 75 76 76
155 181 190 186 187 184 174 173 179 179 182 177 175 165 163 168 166 155 153 154 153 150 148 147 142 136 132 127 121 116 114 112 114 104 103 104 98 94 91 93 94 95 94 98 91 92 89 88 88 85 77 74 72 74 70 77 73 57 51 44 42 48 53 48 43 42 33 71 87 90 91 88 91 96 96 96 90 88 88 87 87 84 79 78 77
189 198 189 189 185 182 181 170 187 181 185 178 180 170 174 173 169 159 158 162 158 155 159 156 153 149 141 142 135 132 128 129 124 121 115 113 109 110 107 105 106 104 103 110 100 94 98 98 92 87 86 86 79 72 69 67 67 71 61 55 45 44 47 48 40 38 34 36 78 91 97 103 101 99 97 96 93 92 94 92 88 88 87 83 78
195 201 198 185 190 186 185 177 186 188 188 179 183 179 180 173 172 160 167 162 162 166 163 163 154 156 151 153 143 143 141 139 138 133 132 116 121 117 117 109 108 101 98 105 111 103 100 97 100 95 93 84 88 79 79 69 62 60 71 59 52 47 47 46 44 39 37 43 29 66 98 92 97 98 99 96 97 97 91 88 89 87 84 83 84
217 207 205 196 194 191 178 186 186 189 190 184 186 182 186 177 171 172 173 160 170 171 166 159 161 160 160 160 157 148 146 141 145 141 131 120 117 120 121 121 119 121 119 108 118 120 110 110 106 104 98 95 88 82 81 75 67 56 63 63 54 50 51 53 49 43 41 36 44 33 36 90 100 103 99 100 100 100 97 95 93 90 86 82 81
214 210 205 210 201 194 186 191 182 192 187 188 190 186 187 184 175 175 172 163 176 170 165 170 167 163 167 173 172 161 157 154 149 147 143 136 129 125 124 131 127 132 127 127 128 121 123 116 112 109 103 96 90 85 86 83 71 62 54 63 49 41 42 54 53 45 40 40 39 34 33 41 99 105 101 107 104 101 100 100 97 93 92 88 82
200 213 209 208 202 198 204 193 187 183 187 194 193 191 188 193 178 172 171 175 174 169 174 176 176 174 174 176 177 178 161 159 159 157 153 146 143 140 137 129 127 132 128 116 110 116 117 117 121 119 115 106 92 83 94 87 83 69 61 65 53 43 45 44 56 50 46 40 37 39 32 29 30 79 119 111 106 103 100 97 95 98 95 92 89
205 212 207 194 198 206 205 197 189 180 191 195 194 193 191 196 180 179 177 179 179 177 180 180 180 182 175 179 179 179 180 166 166 165 161 156 153 149 148 144 140 129 122 124 115 107 110 105 98 99 101 102 99 84 71 93 84 80 70 67 56 56 40 37 56 51 52 44 40 38 37 31 31 31 48 82 96 101 101 99 96 90 90 90 88
217 208 196 190 203 201 204 203 187 184 194 197 197 194 191 196 194 190 182 176 182 183 185 187 183 183 179 182 181 180 182 174 171 172 167 163 157 155 155 156 150 144 137 131 124 121 112 109 100 105 104 103 101 90 75 81 88 72 69 51 57 56 44 45 49 49 51 44 43 39 39 34 33 30 29 46 79 81 90 101 98 93 95 95 92
207 195 183 203 198 198 201 197 192 190 196 195 191 195 193 197 200 196 185 184 188 183 190 190 187 186 178 183 186 181 180 180 170 167 164 157 161 162 158 155 154 147 141 142 137 138 128 122 127 118 112 114 113 110 105 90 78 73 66 60 61 45 34 59 48 48 45 52 41 46 37 40 39 38 34 30 52 86 82 86 93 96 99 95 90
192 193 202 199 188 198 191 201 192 195 191 193 190 195 192 195 197 202 200 190 201 196 188 192 192 194 190 185 186 184 181 178 180 172 171 163 162 163 161 160 153 149 146 151 139 136 133 138 142 130 125 113 109 107 107 104 97 80 69 64 67 47 45 55 50 48 45 45 51 45 40 41 41 42 37 38 24 51 76 77 82 90 92 98 98
204 200 198 185 198 197 193 199 191 197 194 193 192 190 192 192 196 201 202 202 200 210 185 185 189 184 190 189 190 186 184 178 171 174 165 167 168 166 162 158 156 152 150 150 149 145 144 137 131 134 130 126 122 107 98 102 77 88 82 74 66 53 58 43 47 52 37 50 51 47 42 42 37 42 39 36 33 23 44 66 76 74 76 77 84
202 189 191 187 198 197 195 198 197 198 192 189 186 190 191 197 193 195 201 201 207 209 202 185 192 188 183 191 184 183 185 186 179 170 177 174 171 167 160 160 161 158 156 152 155 154 150 145 145 143 133 136 131 122 112 105 91 84 68 76 61 62 54 50 40 42 45 57 47 45 46 34 35 39 37 36 33 28 30 35 43 54 69 72 70
203 197 190 188 194 189 194 200 198 193 186 181 179 174 176 178 191 190 196 202 210 207 201 194 203 200 195 192 188 184 188 181 186 182 168 167 162 155 159 161 159 154 152 154 156 153 153 150 141 140 139 135 136 133 126 116 105 96 78 69 64 59 49 48 41 39 47 56 49 48 38 34 38 37 35 34 31 36 33 26 29 23 29 83 71
200 195 187 192 185 188 189 198 188 178 168 153 141 120 106 81 59 92 173 228 239 246 222 214 208 203 208 200 193 193 192 187 181 180 173 160 159 155 158 173 162 155 151 152 151 164 158 152 146 137 133 136 140 137 131 121 103 89 78 64 63 53 51 54 51 50 43 51 63 52 45 38 43 35 36 30 27 40 39 31 28 27 11 34 31
192 186 187 183 187 182 188 189 185 164 139 131 131 122 110 130 145 88 217 234 242 220 223 223 214 215 214 207 204 199 198 196 186 184 181 175 170 168 166 168 171 158 157 161 168 170 165 157 149 142 136 116 101 127 130 121 98 86 79 65 53 54 50 55 56 53 55 47 49 51 59 46 51 39 34 26 37 39 42 35 32 23 20 6 23
184 183 185 190 187 184 173 190 178 159 158 157 160 157 146 123 102 199 205 191 204 218 231 229 235 239 238 225 202 199 185 190 193 196 202 182 170 162 160 164 167 170 170 173 165 166 156 149 135 129 133 130 132 147 145 132 121 88 71 70 59 36 51 57 62 60 55 49 43 66 52 67 48 50 26 34 48 46 48 43 35 30 21 15 8
199 186 191 193 186 174 183 180 164 169 175 175 169 172 168 173 159 184 169 173 193 203 225 234 241 278 276 244 232 191 190 191 183 180 169 178 172 167 170 170 168 173 168 159 160 152 150 147 146 138 156 150 151 162 167 139 122 145 140 125 64 54 48 41 53 48 61 53 61 69 63 75 71 52 37 59 55 59 52 48 45 36 24 26 22
185 189 189 169 176 181 187 173 175 171 174 169 161 172 147 155 149 172 172 171 257 203 199 269 217 245 251 241 237 211 192 192 184 177 171 170 175 175 179 174 172 166 166 165 161 162 166 161 162 154 149 155 143 169 177 212 120 98 92 94 155 112 198 10 352 20 80 99 83 92 91 94 93 65 93 83 72 67 63 52 57 47 33 38 38
170 177 177 183 183 186 182 176 176 171 165 171 166 143 127 117 84 126 128 127 176 164 155 36 254 267 247 230 241 221 194 198 186 174 175 175 173 177 172 175 177 173 173 164 171 169 164 167 166 163 154 152 171 182 197 181 163 141 156 182 148 106 117 238 195 224 158 189 148 151 140 139 137 129 86 95 96 87 70 69 65 57 50 54 49
187 187 186 188 187 188 183 175 170 172 166 163 161 142 121 96 87 64 64 62 48 119 206 240 227 231 255 236 228 217 201 190 204 189 177 179 180 179 178 177 175 175 178 173 176 178 175 174 169 161 179 169 166 169 200 196 197 228 128 133 95 269 216 161 127 249 144 183 239 196 175 176 174 180 135 119 102 100 110 88 77 63 80 70 52
197 199 192 189 176 176 168 165 159 163 170 171 163 158 165 159 153 150 163 189 211 192 210 216 213 216 221 230 226 213 201 197 198 197 200 176 176 180 176 172 179 179 186 183 174 170 175 172 181 179 177 191 169 165 184 208 208 215 244 358 134 169 161 173 146 204 105 225 198 202 207 193 184 170 187 151 146 152 132 142 147 160 145 129 157
208 171 178 185 179 170 170 167 168 173 174 173 168 165 168 177 183 189 192 199 211 225 223 223 214 229 231 237 239 230 205 198 206 204 190 190 181 179 182 185 183 181 181 179 182 182 181 183 178 183 189 174 168 176 183 183 201 244 238 199 79 188 145 140 195 78 174 261 205 195 240 226 210 188 191 198 191 186 205 185 187 192 210 196 183
167 163 180 178 182 178 170 172 171 175 179 170 176 181 177 180 185 197 203 210 213 221 199 212 192 183 219 237 244 245 232 215 208 206 200 187 181 179 179 177 181 185 178 183 187 188 181 181 188 190 183 188 184 182 180 168 181 208 209 223 290 141 179 345 169 170 161 171 214 253 271 208 224 226 204 195 198 195 196 214 201 215 213 216 187
172 185 188 183 170 160 163 160 173 176 182 179 179 188 183 180 187 193 212 222 219 219 187 189 195 198 220 230 234 237 230 224 216 206 201 193 187 184 180 180 181 184 188 189 188 187 185 181 183 186 189 188 193 186 167 185 197 202 169 189 103 154 164 6 153 41 139 139 159 190 193 123 247 241 233 218 209 198 197 199 199 200 207 202 204
180 165 152 145 157 156 166 173 186 184 181 184 183 186 184 175 189 200 211 216 209 208 176 195 200 197 227 227 231 232 231 227 220 215 204 197 190 187 186 186 185 184 186 190 185 185 185 193 195 192 187 186 187 187 190 193 200 184 185 146 153 125 99 83 183 139 60 139 167 190 191 178 198 217 196 215 212 212 207 201 202 207 213 207 205
164 162 162 165 164 170 176 186 195 181 181 186 183 189 189 189 199 201 208 209 204 198 200 213 200 207 223 229 226 231 228 229 216 218 209 195 194 190 191 191 187 184 187 188 190 189 193 195 195 193 191 187 190 199 200 197 192 191 179 176 186 178 176 178 185 191 162 150 99 183 177 196 198 168 214 199 205 213 207 205 204 208 210 214 209